This is the latest recevied weather packets stored in our database for station/object TG9ADI-20. If no packets are shown the sender has not sent any weather packets the latest 10 day(s).
| Time | Temp. | Humidity | Pressure | Rain* | Wind** | Luminosity | Snow |
|---|---|---|---|---|---|---|---|
| 1777671866 | 23.89° C | 86% | 1009 hPa | 0 mm | - | - | - |
| 1777671265 | 24.44° C | 84% | 1009 hPa | 0 mm | - | - | - |
| 1777670664 | 24.44° C | 83% | 1009 hPa | 0 mm | - | - | - |
| 1777670063 | 26.11° C | 75% | 1009 hPa | 0 mm | - | - | - |
| 1777669463 | 26.11° C | 75% | 1009 hPa | 0 mm | - | - | - |
| 1777668862 | 24.44° C | 10% | - | 0 mm | - | - | - |
| 1777668262 | 24.44° C | 10% | - | 0 mm | - | - | - |
| 1777667661 | 24.44° C | 10% | - | 0 mm | - | - | - |
| 1777667061 | 24.44° C | 10% | - | 0 mm | - | - | - |
| 1777666460 | 24.44° C | 10% | - | 0 mm | - | - | - |
| 1777665859 | 25° C | 79% | 1009 hPa | 0 mm | - | - | - |
| 1777665259 | 26.11° C | 71% | 1009 hPa | 0 mm | - | - | - |
| 1777664658 | 25.56° C | 67% | 1009 hPa | 0 mm | - | - | - |
| 1777664057 | 25.56° C | 67% | 1009 hPa | 0 mm | - | - | - |
| 1777663457 | 26.11° C | 67% | 1010 hPa | 0 mm | - | - | - |
| 1777662856 | 26.67° C | 71% | 1010 hPa | 0 mm | - | - | - |
| 1777662255 | 25.56° C | 67% | 1010 hPa | 0 mm | - | - | - |
| 1777661655 | 25.56° C | 71% | 1010 hPa | 0 mm | - | - | - |
| 1777661054 | 25.56° C | 67% | 1010 hPa | 0 mm | - | - | - |
| 1777660453 | 25.56° C | 67% | 1010 hPa | 0 mm | - | - | - |
| 1777659853 | 26.11° C | 71% | 1011 hPa | 0 mm | - | - | - |
| 1777659252 | 25.56° C | 67% | 1011 hPa | 0 mm | - | - | - |
| 1777658652 | 25.56° C | 72% | 1011 hPa | 0 mm | - | - | - |
| 1777658051 | 25° C | 66% | 1011 hPa | 0 mm | - | - | - |
| 1777657450 | 25° C | 72% | 1011 hPa | 0 mm | - | - | - |
* Rain latest hour (hover to see other rain measurements)
** Current wind speed in m/s (hover to see current wind gust speed)